Date,TemperatureHighF,TemperatureAvgF,TemperatureLowF,DewpointHighF,DewpointAvgF,DewpointLowF,HumidityHigh,HumidityAvg,HumidityLow,PressureMaxIn,PressureMinIn,WindSpeedMaxMPH,WindSpeedAvgMPH,GustSpeedMaxMPH,PrecipitationSumIn
2013-1-1,37.9,34.1,24.2,29.6,24.4,13.4,77,68,54,30.03,29.85,6,2,13,0.08
2013-1-2,30.2,25.3,20.8,16.6,14.2,11.1,68,62,52,30.20,30.01,7,2,15,0.00
2013-1-3,31.4,26.2,20.3,20.8,16.8,15.1,83,68,56,30.21,30.09,3,0,7,0.00
2013-1-4,35.5,32.5,29.4,24.7,22.2,20.0,74,66,58,30.10,29.97,4,1,10,0.00
2013-1-5,39.3,32.8,27.4,24.5,22.0,18.8,84,65,51,30.30,30.03,10,2,15,0.00
2013-1-6,43.8,36.3,29.1,30.5,27.8,24.4,89,72,54,30.24,29.98,2,0,5,0.00
2013-1-7,41.4,35.9,26.0,30.0,25.9,22.1,85,68,47,30.41,30.07,6,1,9,0.00
2013-1-8,46.1,33.5,22.7,31.5,26.8,20.4,93,78,52,30.43,30.36,1,0,3,0.00
2013-1-9,44.9,35.9,25.1,37.6,30.8,23.1,94,82,67,30.41,30.15,2,0,6,0.00
2013-1-10,44.7,40.3,33.6,32.5,26.7,24.6,76,59,46,30.56,30.25,8,2,14,0.00
2013-1-11,39.7,35.7,30.2,37.9,31.2,26.3,96,84,68,30.56,30.12,0,0,1,0.62
2013-1-12,46.8,43.1,39.1,45.4,42.1,38.1,98,96,93,30.19,30.10,2,0,2,0.01
2013-1-13,47.2,44.5,42.3,46.9,43.9,41.5,99,98,97,30.16,30.01,0,0,1,0.02
2013-1-14,54.0,47.1,37.7,52.2,41.6,28.9,99,83,54,30.31,29.91,6,2,8,0.07
2013-1-15,37.5,34.9,33.2,32.9,29.3,26.8,92,80,71,30.36,30.23,3,1,6,0.12
2013-1-16,35.3,32.2,30.0,33.5,30.8,28.5,96,94,86,30.24,29.84,2,0,5,0.08
2013-1-17,40.3,36.9,33.6,33.1,28.6,24.3,91,72,62,30.11,29.91,9,2,20,0.31
2013-1-18,33.4,25.9,21.6,24.7,13.1,5.4,72,59,40,30.49,30.02,8,2,12,0.01
2013-1-19,46.8,35.8,21.0,30.0,24.4,13.1,78,64,49,30.41,29.94,2,0,5,0.19
2013-1-20,50.0,38.9,27.2,31.1,23.4,11.4,85,56,27,30.05,29.70,7,2,14,0.01
2013-1-21,29.4,26.0,22.5,19.0,13.7,8.9,77,60,48,30.09,29.85,5,0,7,0.00
2013-1-22,24.0,17.0,11.0,12.0,3.5,-5.0,79,56,35,30.23,29.85,7,3,11,0.00
2013-1-23,16.8,11.8,8.1,3.6,-1.1,-4.9,75,56,40,30.27,30.18,7,2,14,0.00
2013-1-24,20.6,14.4,7.7,4.8,1.8,-1.5,84,58,38,30.44,30.16,10,4,17,0.00
2013-1-25,23.6,16.4,10.7,14.3,6.6,-0.6,86,66,44,30.44,30.09,5,1,15,0.00
2013-1-26,24.9,17.7,11.1,10.1,8.2,6.2,89,67,46,30.41,30.08,8,2,15,0.00
2013-1-27,31.6,23.3,16.3,13.8,11.4,8.6,76,61,42,30.56,30.41,6,1,12,0.00
2013-1-28,33.4,28.4,20.9,32.1,24.6,13.6,95,86,71,30.52,30.02,0,0,1,0.20
2013-1-29,52.7,41.5,33.4,44.4,38.9,32.1,98,91,72,30.16,30.03,1,0,6,0.24
2013-1-30,58.6,45.2,37.7,58.3,44.6,36.9,99,98,96,30.09,29.37,2,0,11,0.33
2013-1-31,59.6,42.2,27.0,59.3,30.5,10.4,99,65,40,29.78,29.06,8,4,18,1.28
2013-2-1,28.4,25.2,21.1,16.0,12.5,4.1,76,59,35,30.25,29.79,10,2,13,0.00
2013-2-2,27.2,21.2,15.9,19.1,11.1,6.7,89,66,43,30.31,30.08,2,0,8,0.00
2013-2-3,27.8,21.7,19.0,19.3,17.7,15.6,92,85,67,30.07,29.82,3,0,3,0.05
2013-2-4,27.7,24.1,20.0,21.0,12.1,9.0,92,60,45,29.99,29.83,5,2,13,0.00
2013-2-5,28.5,26.4,23.3,26.0,21.9,14.7,93,83,65,29.99,29.92,2,0,3,0.00
2013-2-6,36.1,30.5,25.4,26.9,20.9,8.5,94,70,46,30.38,29.94,6,2,15,0.03
2013-2-7,31.0,25.6,20.0,20.0,12.1,8.2,72,57,45,30.52,30.35,1,0,3,0.00
2013-2-8,32.4,30.3,27.1,30.9,27.4,20.1,95,89,72,30.35,29.70,6,2,10,0.00
2013-2-9,30.5,25.7,18.3,27.4,16.6,7.6,96,70,43,30.36,29.78,10,5,16,0.00
2013-2-10,35.9,24.9,15.9,20.3,13.2,8.4,77,62,39,30.50,30.34,5,1,8,0.16
2013-2-11,43.3,35.1,27.5,42.8,32.7,20.6,100,91,75,30.34,29.69,2,0,4,0.26
2013-2-12,41.9,38.5,32.5,37.9,27.6,24.5,96,65,55,29.99,29.74,6,2,17,0.00
2013-2-13,42.1,33.6,23.8,31.3,25.7,21.3,93,74,53,29.97,29.70,1,0,4,0.00
2013-2-14,44.0,35.3,29.5,31.5,28.7,25.3,95,78,52,30.01,29.73,3,0,4,0.11
2013-2-15,52.6,41.1,28.8,33.3,29.6,25.6,96,66,41,30.02,29.93,4,1,10,0.02
2013-2-16,35.2,32.8,27.5,32.8,24.8,13.0,93,73,53,29.99,29.77,7,3,10,0.05
2013-2-17,27.6,23.7,15.8,12.9,6.5,1.3,68,48,36,30.02,29.71,13,7,27,0.00
2013-2-18,33.2,23.4,14.4,14.8,7.1,1.8,63,50,32,30.27,30.02,8,4,18,0.00
2013-2-19,42.2,33.2,21.9,39.8,26.8,13.9,95,78,57,30.22,29.70,5,0,15,0.50
2013-2-20,35.0,28.0,23.1,25.1,14.7,10.2,69,57,46,30.00,29.73,8,4,20,0.00
2013-2-21,30.7,25.4,21.8,15.6,13.3,11.3,71,60,51,30.32,29.99,12,6,16,0.00
2013-2-22,37.2,29.5,21.8,29.3,21.5,14.0,85,72,56,30.42,30.29,4,1,7,0.00
2013-2-23,39.5,35.4,32.9,38.7,34.2,29.1,97,96,85,30.29,29.84,2,0,4,0.28
2013-2-24,44.3,36.5,31.2,37.0,30.7,22.5,97,80,60,30.00,29.78,8,3,14,0.01
2013-2-25,40.3,35.8,30.4,29.0,27.0,22.5,81,70,59,30.26,30.00,7,2,15,0.00
2013-2-26,41.8,34.9,27.0,33.6,30.1,25.0,94,83,67,30.31,29.90,4,1,8,0.11
2013-2-27,46.0,41.0,34.2,44.9,38.7,32.7,97,92,80,29.91,29.53,5,2,9,0.85
2013-2-28,47.3,40.6,36.3,36.9,33.1,27.8,94,76,53,29.64,29.56,4,1,7,0.00
2013-3-1,42.2,37.3,33.4,31.2,29.1,25.9,86,72,57,29.81,29.63,7,3,14,0.00
2013-3-2,36.5,32.7,28.9,26.2,24.3,22.1,81,71,62,29.80,29.73,7,4,12,0.00
2013-3-3,35.3,29.7,26.7,21.7,19.6,16.9,74,66,54,29.80,29.70,9,5,15,0.00
2013-3-4,37.1,31.0,25.6,21.5,19.7,15.8,76,63,51,29.94,29.79,10,6,17,0.00
2013-3-5,44.8,36.8,29.8,28.0,24.9,21.8,73,62,49,30.04,29.94,8,2,14,0.00
2013-3-6,41.7,37.9,36.2,35.0,30.7,27.0,89,75,67,29.99,29.87,8,4,14,0.04
2013-3-7,39.2,35.3,31.8,33.3,29.1,26.0,93,79,66,30.11,29.97,9,6,20,0.04
2013-3-8,42.1,34.5,29.6,35.6,30.0,26.8,93,84,66,30.24,30.03,8,5,12,0.13
2013-3-9,55.6,41.6,32.2,26.8,21.8,6.7,73,50,14,30.33,30.21,7,3,14,0.00
2013-3-10,51.0,38.3,28.0,35.5,30.4,24.3,92,74,50,30.40,30.30,1,0,3,0.00
2013-3-11,55.6,44.1,36.1,46.3,40.2,33.5,97,87,58,30.33,30.10,1,0,3,0.01
2013-3-12,56.8,50.0,42.1,56.2,47.9,36.1,98,93,78,30.10,29.67,7,1,8,1.96
2013-3-13,48.7,41.1,35.2,35.9,29.7,22.7,89,66,36,29.90,29.81,5,2,9,0.00
2013-3-14,38.5,32.7,27.2,25.7,13.7,6.8,72,47,28,29.98,29.86,11,5,15,0.00
2013-3-15,44.6,36.2,27.1,31.1,21.0,11.6,67,54,43,30.00,29.73,6,2,10,0.00
2013-3-16,39.8,33.5,31.6,30.7,25.8,20.2,95,74,56,29.93,29.79,4,0,6,0.07
2013-3-17,35.3,31.3,26.3,28.8,19.5,13.5,89,63,45,30.32,29.93,6,2,14,0.01
2013-3-18,33.4,28.7,24.4,29.4,18.6,8.9,95,67,49,30.42,30.04,3,1,5,0.00
2013-3-19,43.2,35.9,31.0,35.8,32.5,19.9,97,88,52,30.03,29.71,5,1,10,0.96
2013-3-20,42.6,35.7,28.9,24.2,20.1,17.6,68,53,37,29.89,29.79,5,2,15,0.02
2013-3-21,36.6,31.8,28.4,27.6,17.9,11.8,89,58,37,29.86,29.65,6,3,13,0.00
2013-3-22,39.3,32.6,26.2,23.5,18.6,12.9,72,57,45,29.90,29.74,8,2,16,0.00
2013-3-23,42.6,36.7,31.5,23.9,20.7,17.8,67,53,40,29.96,29.85,8,3,14,0.00
2013-3-24,44.4,37.4,29.5,24.9,21.9,18.7,66,54,42,29.97,29.72,6,2,10,0.00
2013-3-25,39.5,37.3,34.7,33.4,28.8,24.3,86,71,57,29.72,29.49,4,1,6,0.02
2013-3-26,49.5,41.2,34.2,32.1,28.8,24.7,85,63,38,29.89,29.63,7,2,11,0.00
2013-3-27,49.7,41.1,33.1,31.2,26.9,21.3,76,58,33,30.00,29.89,8,3,16,0.00
2013-3-28,47.5,41.6,35.4,31.4,30.3,28.1,81,65,50,30.13,29.97,7,4,15,0.00
2013-3-29,52.3,44.0,38.2,31.3,29.3,26.1,71,57,37,30.16,30.08,7,3,11,0.00
2013-3-30,57.5,44.9,34.3,31.9,25.3,15.6,83,51,20,30.19,30.08,6,1,8,0.00
2013-3-31,56.5,43.4,31.0,42.8,33.1,24.8,95,69,39,30.14,29.70,1,0,6,0.32
2013-4-1,60.5,46.5,35.5,46.0,36.0,11.9,97,71,33,29.92,29.64,10,2,17,0.05
2013-4-2,41.7,35.6,29.9,19.3,14.1,10.0,61,42,29,30.10,29.92,7,3,17,0.00
2013-4-3,43.9,36.3,30.3,16.8,13.2,10.1,54,39,26,30.31,30.09,10,4,22,0.00
2013-4-4,55.3,41.8,30.1,23.1,19.9,15.8,61,43,25,30.40,30.09,10,1,10,0.00
2013-4-5,59.5,47.1,36.8,29.3,24.0,17.6,69,43,22,30.09,29.75,10,3,16,0.00
2013-4-6,52.4,41.3,32.5,23.7,15.6,7.6,61,38,17,30.31,30.01,8,3,17,0.00
2013-4-7,65.9,49.4,35.5,43.3,33.1,24.4,79,56,29,30.31,29.98,3,1,6,0.00
2013-4-8,77.5,60.8,48.6,45.7,42.4,35.8,80,55,24,30.08,29.97,5,1,7,0.00
2013-4-9,80.3,67.1,51.6,52.3,43.4,34.6,86,48,20,29.99,29.90,8,2,11,0.00
2013-4-10,77.3,63.9,54.4,57.4,51.4,41.8,95,66,46,29.94,29.81,6,0,6,0.69
2013-4-11,61.1,55.0,46.3,57.6,50.2,42.0,97,85,58,30.04,29.78,4,1,5,0.01
2013-4-12,46.2,41.9,39.3,41.9,39.3,37.6,96,91,75,30.02,29.74,4,2,7,0.66
2013-4-13,58.4,48.0,37.4,42.1,36.8,33.3,96,69,42,29.98,29.77,5,1,14,0.02
2013-4-14,55.1,50.1,45.7,37.1,31.5,27.2,65,50,36,30.22,29.97,8,2,15,0.00
2013-4-15,59.7,49.4,40.6,39.2,31.6,27.8,75,51,35,30.38,30.23,1,0,4,0.00
2013-4-16,69.6,57.0,45.5,56.2,48.7,39.3,86,75,53,30.38,30.11,2,0,5,0.00
2013-4-17,70.9,61.0,53.6,56.5,41.8,32.2,87,54,25,30.30,30.12,6,2,12,0.00
2013-4-18,53.2,49.1,46.3,41.9,40.4,39.3,80,72,64,30.31,30.29,0,0,0,0.00
2013-4-20,57.8,51.6,43.4,40.8,29.5,23.6,76,43,29,30.32,29.87,6,3,13,0.00
2013-4-21,53.2,43.7,34.6,28.7,23.4,19.4,67,46,28,30.63,30.33,7,2,12,0.00
2013-4-22,52.9,44.9,35.0,36.4,32.1,28.0,87,62,43,30.67,30.50,3,1,9,0.00
2013-4-23,50.0,43.6,37.8,42.0,36.9,31.3,84,77,71,30.50,30.14,3,1,5,0.00
2013-4-24,76.2,57.5,39.1,53.5,46.1,36.4,92,69,44,30.14,29.81,3,0,6,0.00
2013-4-25,64.8,54.5,43.6,54.3,30.6,19.4,83,43,18,30.27,29.86,9,3,16,0.00
2013-4-26,63.9,54.6,43.8,37.2,30.4,21.2,73,43,20,30.42,30.27,7,2,9,0.00
2013-4-27,71.1,56.5,40.6,35.9,31.5,22.7,78,42,21,30.44,30.28,4,0,11,0.00
2013-4-28,74.4,58.3,42.2,42.7,36.9,30.7,82,48,27,30.32,30.18,1,0,2,0.00
2013-4-29,56.3,52.3,50.6,50.4,48.1,40.3,95,86,55,30.24,30.19,1,0,3,0.24
2013-4-30,68.7,56.2,47.3,49.6,40.2,24.6,96,62,23,30.34,30.21,2,0,4,0.02
2013-5-1,69.7,54.7,39.4,45.2,36.8,27.4,86,55,23,30.49,30.34,2,0,10,0.00
2013-5-2,77.5,59.4,42.2,45.7,41.7,37.7,95,58,29,30.48,30.33,2,0,4,0.00
2013-5-3,65.9,56.8,46.3,44.6,38.9,32.7,83,54,30,30.45,30.35,2,0,5,0.00
2013-5-4,72.0,55.4,43.3,45.7,42.3,38.1,94,66,31,30.38,30.23,2,0,3,0.00
2013-5-5,65.2,51.7,40.9,45.1,40.6,35.7,94,69,35,30.30,30.22,3,0,3,0.00
2013-5-6,70.7,55.2,41.6,54.8,47.5,39.2,94,77,53,30.28,30.16,1,0,3,0.00
2013-5-7,75.2,61.2,47.4,58.4,52.6,45.9,96,75,50,30.18,30.08,1,0,7,0.00
2013-5-8,65.5,60.6,54.1,62.4,58.2,52.1,97,92,84,30.10,29.97,2,0,3,1.68
2013-5-9,67.4,58.8,52.2,57.7,54.6,50.5,100,87,65,30.01,29.90,3,0,4,0.21
2013-5-10,81.7,67.8,55.0,60.1,56.4,53.6,97,71,42,30.00,29.90,3,0,3,0.00
2013-5-11,71.4,65.5,61.2,66.4,62.3,59.5,97,90,74,29.91,29.71,1,0,4,0.58
2013-5-12,66.7,59.3,48.9,59.1,40.9,25.0,94,54,26,29.94,29.67,5,2,12,0.01
2013-5-13,54.0,47.7,41.6,35.2,30.1,25.4,75,51,34,30.13,29.94,6,2,12,0.00
2013-5-14,60.8,49.5,39.2,35.2,29.4,20.9,80,51,22,30.15,30.03,4,1,11,0.00
2013-5-15,74.4,57.7,41.8,57.9,46.9,34.6,82,68,50,30.08,29.69,3,0,6,0.00
2013-5-16,84.6,69.7,56.5,57.7,52.9,43.1,92,60,30,29.84,29.72,3,0,5,0.00
2013-5-17,72.5,63.0,55.4,47.9,41.7,37.8,67,47,30,30.21,29.85,4,2,10,0.00
2013-5-18,65.0,57.4,50.4,55.1,50.4,44.7,89,78,57,30.31,30.21,0,0,1,0.00
2013-5-19,57.7,56.5,54.8,56.7,55.3,53.3,98,96,89,30.32,30.18,1,0,3,0.75
2013-5-20,81.1,67.5,57.0,68.5,62.5,56.4,99,86,63,30.19,29.97,2,0,8,0.01
2013-5-21,90.1,75.3,61.9,73.0,67.3,60.6,98,78,53,29.98,29.84,3,0,6,0.00
2013-5-22,85.7,72.6,61.8,73.5,67.5,59.8,95,85,65,29.93,29.82,1,0,3,0.00
2013-5-23,78.2,70.7,64.3,73.1,68.2,62.5,97,92,76,29.89,29.75,1,0,2,2.69
2013-5-24,66.7,53.3,43.7,65.8,51.0,41.2,98,92,84,29.97,29.69,7,3,17,0.80
2013-5-25,54.4,48.5,43.7,44.2,41.5,38.4,93,78,56,30.04,29.92,10,5,18,0.07
2013-5-26,65.9,55.4,46.1,41.2,37.6,33.6,77,54,31,30.22,29.99,8,3,17,0.00
2013-5-27,76.2,60.5,44.4,46.6,40.0,36.1,83,51,26,30.26,30.13,3,1,8,0.00
2013-5-28,65.2,56.8,50.5,56.2,51.9,44.5,97,84,58,30.23,30.14,0,0,1,0.74
2013-5-29,85.9,70.0,56.7,70.8,63.6,55.9,99,82,56,30.14,30.01,1,0,3,0.01
2013-5-30,92.3,80.8,68.1,68.9,65.6,62.3,92,63,38,30.14,30.06,3,0,4,0.00
2013-5-31,95.3,81.4,68.6,73.9,66.6,61.1,93,64,37,30.12,29.99,1,0,2,0.00
2013-6-1,92.8,80.8,67.7,72.4,68.1,64.5,95,67,48,30.02,29.89,1,0,4,0.00
2013-6-2,89.5,79.0,70.1,72.5,69.2,66.8,92,73,53,29.90,29.77,1,0,5,0.03
2013-6-3,79.4,71.8,64.8,70.0,63.8,45.7,95,77,50,29.89,29.80,4,1,7,0.22
2013-6-4,74.5,64.3,54.6,47.3,45.1,42.0,74,51,32,30.13,29.90,6,3,12,0.00
2013-6-5,76.3,64.6,51.2,51.8,45.9,38.3,80,52,35,30.22,30.11,1,0,4,0.00
2013-6-6,70.5,61.2,52.2,61.8,55.3,49.9,95,82,50,30.15,30.01,1,0,4,0.25
2013-6-7,61.7,60.4,59.1,61.1,59.6,58.3,98,97,95,30.01,29.64,3,0,9,3.06
2013-6-8,75.6,66.4,56.4,64.6,60.8,55.3,97,83,66,30.06,29.62,5,1,9,0.31
2013-6-9,81.0,70.2,58.7,63.2,60.0,56.7,96,72,48,30.18,30.06,3,0,5,0.00
2013-6-10,67.5,64.5,62.1,65.3,62.5,60.9,98,93,89,30.16,29.83,0,0,2,1.34
2013-6-11,79.0,70.6,62.3,69.3,64.5,59.5,99,82,65,29.82,29.64,4,1,12,0.07
2013-6-12,74.6,69.5,61.8,61.2,56.3,53.2,86,64,49,29.86,29.71,7,3,14,0.00
2013-6-13,61.8,60.1,55.8,60.4,58.3,54.3,97,94,85,29.85,29.47,4,0,7,0.82
2013-6-14,73.7,60.3,53.0,60.2,54.7,50.2,95,83,55,29.91,29.56,6,2,11,0.29
2013-6-15,79.8,68.6,58.7,59.3,54.9,48.9,91,65,36,30.03,29.91,4,1,5,0.00
2013-6-16,81.8,66.5,56.9,65.3,53.1,-99.9,92,70,49,30.00,29.78,2,0,6,0.19
2013-6-17,85.1,78.0,67.2,68.5,65.9,63.5,89,67,52,29.90,29.84,2,0,6,0.00
2013-6-18,82.3,69.7,61.9,71.3,64.2,60.3,97,84,54,29.90,29.81,3,0,4,1.09
2013-6-19,75.7,65.1,56.9,60.2,53.6,46.8,95,70,41,30.17,29.90,4,1,5,0.05
2013-6-20,81.2,67.6,53.5,60.4,56.5,51.8,95,70,40,30.27,30.17,1,0,3,0.00
2013-6-21,84.2,71.1,59.2,62.6,57.7,51.4,82,64,46,30.31,30.23,2,0,4,0.00
2013-6-22,85.4,72.8,58.0,67.3,61.5,54.3,90,69,48,30.26,30.12,2,0,3,0.00
2013-6-23,89.3,77.4,65.6,71.7,67.8,62.9,93,74,53,30.19,30.06,1,0,3,0.00
2013-6-24,91.9,79.4,70.7,72.4,69.9,64.9,92,74,45,30.08,29.95,3,1,7,0.01
2013-6-25,90.3,78.7,67.2,73.0,68.9,65.7,95,74,49,30.00,29.81,2,0,6,0.02
2013-6-26,84.7,77.0,71.5,72.6,68.4,65.6,92,75,61,29.86,29.79,4,1,7,0.00
2013-6-27,86.4,76.6,69.3,73.4,69.9,67.0,97,81,62,29.83,29.53,1,0,2,1.11
2013-6-28,86.6,76.8,71.1,72.0,69.4,65.6,96,79,55,29.55,29.48,3,0,6,0.01
2013-6-29,86.2,75.3,66.4,69.9,66.0,63.7,95,75,49,29.70,29.49,2,0,4,0.00
2013-6-30,83.3,77.7,73.3,75.3,73.6,70.2,94,87,75,29.90,29.80,0,0,1,0.19
2013-7-1,76.9,73.9,70.5,75.0,72.6,69.6,98,96,92,30.04,29.93,2,0,2,0.97
2013-7-2,80.8,75.8,72.4,77.4,73.4,71.0,98,92,84,30.18,30.03,1,0,3,0.14
2013-7-3,85.1,76.9,70.8,76.9,72.7,69.3,96,87,70,30.25,30.17,1,0,2,0.03
2013-7-4,90.5,80.7,73.0,75.9,73.6,71.3,97,80,58,30.25,30.15,1,0,2,0.00
2013-7-5,94.1,82.0,73.0,76.5,72.7,70.9,94,75,51,30.21,30.09,2,0,4,0.00
2013-7-6,91.2,82.1,75.1,75.9,73.1,71.4,90,75,55,30.14,30.03,3,0,6,0.00
2013-7-7,94.5,83.2,71.0,77.4,73.8,68.4,94,75,53,30.06,29.93,5,0,5,0.11
2013-7-8,88.6,77.2,69.0,72.5,69.0,66.8,94,77,53,30.05,29.98,4,1,5,0.01
2013-7-9,88.2,77.6,68.7,74.7,70.0,66.0,93,78,58,30.08,29.99,2,0,4,0.02
2013-7-10,85.7,78.3,71.0,75.9,72.5,69.5,97,83,65,30.02,29.81,2,0,3,0.01
2013-7-11,82.1,77.2,71.2,74.5,69.5,63.0,94,78,62,29.93,29.80,3,0,5,0.00
2013-7-12,76.0,71.6,67.4,70.5,66.2,62.2,97,84,74,30.11,29.93,3,0,9,0.34
2013-7-13,77.8,71.4,65.7,75.2,70.1,64.9,99,96,89,30.29,30.10,1,0,3,0.16
2013-7-14,91.3,80.8,74.0,75.2,73.3,71.3,98,80,55,30.35,30.24,3,0,6,0.00
2013-7-15,92.2,82.9,74.4,75.2,72.9,71.0,90,73,55,30.26,30.15,4,1,7,0.00
2013-7-16,89.7,81.1,73.7,74.8,70.7,66.4,88,72,50,30.21,30.14,3,1,6,0.00
2013-7-17,94.1,82.8,73.8,73.8,71.4,68.2,91,71,46,30.21,30.06,2,0,7,0.00
2013-7-18,95.4,85.4,77.8,77.0,73.6,70.6,84,69,46,30.08,29.95,4,1,6,0.00
2013-7-19,95.2,86.2,76.5,78.2,75.3,71.7,89,71,54,29.97,29.80,2,0,8,0.00
2013-7-20,90.7,83.1,77.2,75.6,71.8,66.7,81,69,52,29.84,29.73,4,1,7,0.00
2013-7-21,86.7,78.9,73.4,72.0,67.6,63.4,88,70,49,29.96,29.84,1,0,3,0.00
2013-7-22,82.2,74.7,69.9,75.0,70.8,65.7,98,88,73,29.97,29.80,1,0,3,1.16
2013-7-23,88.9,77.3,71.4,75.3,72.6,69.4,99,87,62,29.80,29.57,5,0,5,1.22
2013-7-24,78.1,72.5,64.2,69.7,64.2,53.8,94,76,57,29.95,29.62,5,2,10,0.00
2013-7-25,66.6,63.7,60.6,60.4,55.9,50.5,86,76,69,30.06,29.95,3,1,7,0.00
2013-7-26,81.4,70.4,63.7,63.6,61.2,59.6,88,74,51,30.06,30.00,2,0,4,0.00
2013-7-27,85.1,71.7,59.4,67.0,62.3,57.9,96,74,46,30.06,29.95,1,0,2,0.00
2013-7-28,76.5,69.5,65.1,71.4,66.8,62.4,99,91,76,29.99,29.92,1,0,1,1.88
2013-7-29,82.2,71.7,64.3,68.3,62.7,54.3,99,76,41,30.11,29.97,3,0,5,0.01
2013-7-30,78.7,68.9,59.8,61.3,58.5,55.6,91,71,49,30.19,30.11,4,1,6,0.00
2013-7-31,81.8,70.5,59.5,65.0,61.5,58.1,95,75,50,30.17,30.04,1,0,3,0.00
2013-8-1,69.2,66.7,65.1,67.7,65.3,62.7,98,95,86,30.05,29.84,0,0,2,1.03
2013-8-2,82.9,72.1,62.8,67.5,64.1,59.2,98,78,49,29.92,29.81,3,0,5,0.00
2013-8-3,79.8,69.5,64.5,67.7,63.4,58.3,95,81,64,29.92,29.85,2,0,4,0.11
2013-8-4,76.5,68.8,61.1,63.2,57.8,51.2,91,70,50,29.99,29.87,4,1,10,0.00
2013-8-5,74.6,65.6,57.3,59.0,52.4,46.3,87,64,41,30.08,29.99,4,1,6,0.00
2013-8-6,80.6,68.0,55.7,63.2,58.0,53.2,95,73,44,30.12,30.05,1,0,4,0.00
2013-8-7,76.3,69.3,64.2,70.3,66.1,62.2,98,90,74,30.14,30.06,0,0,2,0.16
2013-8-8,82.4,72.9,68.6,75.3,70.8,68.0,99,93,75,30.07,30.00,0,0,1,0.27
2013-8-9,85.9,75.3,71.2,76.4,73.4,70.9,99,94,71,30.02,29.80,2,0,6,0.82
2013-8-10,80.7,73.2,66.7,71.4,65.5,61.4,97,78,54,30.06,29.87,4,1,6,0.01
2013-8-11,80.3,69.1,58.6,66.2,59.6,55.4,93,73,51,30.14,30.04,3,0,5,0.00
2013-8-12,81.8,71.2,65.5,67.1,65.2,59.5,98,83,54,30.05,29.93,2,0,2,0.34
2013-8-13,77.0,70.4,65.7,71.1,67.7,64.5,99,91,80,29.94,29.71,5,0,5,0.84
2013-8-14,71.0,65.0,58.3,64.9,54.0,48.6,93,68,56,30.06,29.78,8,3,14,0.01
2013-8-15,75.3,63.7,54.3,57.4,52.6,48.2,91,69,45,30.16,30.06,4,1,7,0.00
2013-8-16,78.4,65.9,54.8,61.1,55.9,51.1,95,73,40,30.22,30.14,2,0,4,0.00
2013-8-17,81.0,68.3,56.6,64.8,58.9,55.2,96,75,43,30.29,30.22,2,0,2,0.00
2013-8-18,72.7,67.4,62.1,66.6,62.2,58.9,95,84,66,30.27,30.14,1,0,4,0.00
2013-8-19,77.3,69.2,62.7,66.9,63.3,60.9,96,83,59,30.14,30.05,2,0,4,0.01
2013-8-20,84.8,74.1,64.7,69.0,65.8,60.7,96,77,48,30.15,30.06,2,0,4,0.00
2013-8-21,86.4,75.0,65.5,67.9,65.4,61.9,95,75,46,30.19,30.06,2,0,3,0.00
2013-8-22,77.8,71.5,68.1,74.0,69.2,65.8,98,93,84,30.07,29.89,1,0,1,0.42
2013-8-23,77.2,71.6,64.6,67.7,62.6,55.1,90,74,50,30.11,29.90,5,1,9,0.00
2013-8-24,78.5,66.7,57.7,58.6,54.3,50.0,92,67,41,30.36,30.12,4,1,7,0.00
2013-8-25,80.0,67.9,55.8,60.8,56.3,50.2,96,70,40,30.41,30.24,2,0,7,0.00
2013-8-26,80.0,71.8,66.5,69.9,63.0,55.6,97,74,65,30.24,29.93,2,0,3,0.06
2013-8-27,83.8,75.4,70.1,70.1,68.5,67.1,97,80,59,29.92,29.83,4,1,12,0.02
2013-8-28,81.2,72.6,66.7,73.3,70.2,65.6,98,92,75,29.92,29.85,0,0,1,0.10
2013-8-29,79.3,71.5,67.2,70.7,68.5,65.2,99,91,73,30.03,29.90,1,0,5,0.06
2013-8-30,83.4,73.8,68.0,71.4,68.3,65.4,93,84,64,30.04,29.87,3,0,4,0.00
2013-8-31,84.6,76.4,71.0,76.1,72.1,69.1,94,87,73,29.88,29.80,1,0,2,0.00
2013-9-1,83.2,76.3,72.2,75.1,72.6,70.0,97,89,74,29.86,29.80,0,0,0,0.00
2013-9-2,77.0,73.1,70.1,74.6,71.7,68.9,98,95,88,29.81,29.71,1,0,2,0.17
2013-9-3,78.8,70.7,64.0,70.2,63.5,58.0,99,80,53,29.90,29.73,5,1,8,0.24
2013-9-4,79.4,68.7,58.9,62.1,59.1,55.4,94,73,53,30.02,29.89,4,1,7,0.00
2013-9-5,72.6,66.7,56.6,61.9,54.5,43.8,86,67,38,30.17,29.93,6,1,13,0.00
2013-9-6,68.4,58.6,50.6,49.9,45.8,42.2,89,64,41,30.27,30.16,3,0,10,0.00
2013-9-7,76.9,63.1,48.0,57.1,50.6,45.8,94,67,36,30.15,29.92,2,0,6,0.00
2013-9-8,77.2,68.5,59.2,65.4,56.3,46.6,82,66,44,30.09,29.83,7,2,9,0.00
2013-9-9,71.5,61.0,49.2,59.2,51.4,45.2,88,72,52,30.25,30.09,1,0,3,0.00
2013-9-10,84.9,73.4,64.2,74.7,68.5,59.3,96,85,70,30.17,30.06,2,0,4,0.00
2013-9-11,93.0,81.7,71.6,79.8,74.4,70.4,97,79,61,30.12,29.98,2,0,4,0.00
2013-9-12,82.8,73.4,67.0,77.5,70.7,66.1,98,91,81,30.00,29.69,4,0,5,1.19
2013-9-13,72.9,65.8,56.1,66.6,59.5,49.7,97,81,62,29.87,29.65,6,2,18,0.03
2013-9-14,62.4,55.8,50.1,50.6,47.8,45.4,85,75,61,30.15,29.87,6,2,13,0.00
2013-9-15,69.3,57.1,46.2,54.3,48.0,43.7,93,74,41,30.23,30.10,3,0,5,0.00
2013-9-16,68.6,60.9,55.3,57.3,53.9,47.9,95,79,56,30.26,30.04,4,1,12,0.02
2013-9-17,62.4,53.1,45.4,48.9,42.7,38.4,93,69,45,30.45,30.26,5,1,9,0.00
2013-9-18,69.1,55.1,43.7,49.8,46.0,41.9,96,75,43,30.38,30.20,2,0,3,0.00
2013-9-19,73.5,59.1,46.8,54.7,50.2,45.2,95,75,44,30.21,30.09,2,0,4,0.00
2013-9-20,77.3,62.6,49.6,62.2,55.8,48.2,98,80,53,30.10,30.00,1,0,2,0.01
2013-9-21,75.2,64.1,53.7,66.0,59.9,52.9,98,87,58,30.02,29.67,2,0,2,1.55
2013-9-22,63.2,59.5,53.3,61.2,51.5,42.3,97,76,57,29.94,29.67,5,2,11,0.18
2013-9-23,60.9,54.1,47.5,46.2,43.5,41.0,81,68,54,30.07,29.94,6,2,12,0.00
2013-9-24,70.0,56.2,42.4,48.4,44.4,40.0,92,67,41,30.07,29.91,5,1,7,0.00
2013-9-25,68.7,57.3,46.4,54.0,47.8,42.9,94,72,46,29.98,29.89,2,0,4,0.00
2013-9-26,67.2,58.0,48.5,58.7,54.0,47.4,97,87,69,30.12,29.96,2,0,3,0.00
2013-9-27,65.3,57.7,49.3,55.2,52.0,47.9,96,82,64,30.28,30.12,3,0,4,0.00
2013-9-28,70.2,59.6,51.3,54.4,52.7,50.2,96,80,52,30.34,30.26,3,0,9,0.00
2013-9-29,69.0,58.0,49.0,58.1,52.9,48.2,97,84,60,30.26,30.10,1,0,3,0.00
2013-9-30,70.0,58.3,48.5,57.3,52.7,47.7,97,83,54,30.11,29.99,1,0,4,0.01
2013-10-1,76.9,63.7,52.3,62.4,56.8,51.0,96,80,53,30.03,29.92,2,0,5,0.00
2013-10-2,80.8,65.9,54.2,64.4,59.6,53.0,96,82,54,30.03,29.93,4,0,5,0.01
2013-10-3,76.1,64.9,56.2,62.0,59.0,55.4,97,83,51,30.14,30.03,0,0,1,0.00
2013-10-4,82.2,70.0,59.1,68.1,63.8,58.2,97,82,56,30.07,29.98,3,0,3,0.02
2013-10-5,75.6,68.1,64.0,68.3,65.1,63.4,99,91,75,30.10,30.02,1,0,2,0.00
2013-10-6,66.7,65.1,63.8,66.4,64.6,63.1,99,98,95,30.10,30.03,0,0,3,0.05
2013-10-7,67.2,66.6,66.3,66.9,66.3,66.0,99,99,99,30.03,29.92,0,0,0,0.00
2013-10-9,59.4,55.5,51.9,48.9,47.0,44.4,87,74,62,30.41,30.31,2,0,7,0.00
2013-10-10,59.8,56.0,51.4,54.3,50.8,45.6,90,83,79,30.30,30.10,4,1,7,0.01
2013-10-11,65.4,61.9,58.7,60.3,57.1,53.5,89,84,79,30.11,30.03,3,1,6,0.00
2013-10-12,70.4,63.2,57.7,57.7,48.5,32.5,85,61,25,30.29,30.08,2,1,10,0.00
2013-10-13,61.1,56.0,49.1,54.2,50.7,47.8,96,82,71,30.41,30.29,1,0,6,0.00
2013-10-14,65.6,54.2,46.9,52.0,49.1,45.9,97,84,58,30.38,30.25,2,0,3,0.00
2013-10-15,69.4,55.7,46.9,56.6,50.9,46.1,97,86,59,30.28,30.14,1,0,2,0.00
2013-10-16,65.0,61.1,54.8,59.3,57.4,52.2,96,88,79,30.10,29.93,0,0,2,0.00
2013-10-17,72.3,64.3,59.1,63.0,60.6,58.3,98,89,70,29.93,29.69,1,0,2,0.03
2013-10-18,64.0,58.5,49.8,62.6,47.7,42.1,96,68,49,30.00,29.68,6,2,11,0.01
2013-10-19,61.0,52.4,42.3,52.1,45.6,40.2,95,79,55,30.00,29.77,0,0,2,0.04
2013-10-20,59.9,51.6,42.7,51.4,41.2,34.3,96,70,39,30.08,29.77,5,1,9,0.00
2013-10-21,63.7,50.6,38.8,45.2,40.2,35.4,95,71,37,30.17,29.99,1,0,3,0.00
2013-10-22,61.6,51.7,43.4,51.0,45.1,36.7,97,79,57,30.00,29.76,2,0,4,0.00
2013-10-23,52.3,44.7,38.0,39.8,37.2,35.3,92,76,57,29.83,29.64,3,0,5,0.00
2013-10-24,50.5,43.1,37.5,36.9,32.1,26.6,87,67,41,30.02,29.78,4,1,10,0.00
2013-10-25,51.6,42.7,36.1,35.2,32.0,29.4,83,67,44,30.25,30.02,5,1,9,0.00
2013-10-26,52.6,43.4,34.1,34.1,32.1,29.3,93,67,43,30.25,29.91,2,0,11,0.00
2013-10-27,54.7,48.3,42.8,35.4,33.0,30.8,70,56,42,30.14,29.86,4,1,10,0.00
2013-10-28,58.3,45.9,33.7,36.9,34.4,31.0,92,67,42,30.33,30.13,4,0,5,0.00
2013-10-29,52.6,44.8,38.1,37.6,33.8,29.4,84,66,42,30.44,30.34,2,0,4,0.00
2013-10-30,56.3,46.4,36.6,49.6,41.4,32.5,94,83,72,30.37,30.20,0,0,0,0.00
2013-10-31,60.8,53.9,44.3,58.9,52.4,42.7,97,95,89,30.25,29.82,0,0,4,0.02
2013-11-1,67.9,62.3,52.5,63.7,57.0,49.9,97,84,57,29.80,29.56,4,1,9,0.37
2013-11-2,65.2,54.4,47.9,49.7,45.6,39.8,96,74,50,29.80,29.63,3,0,5,0.00
2013-11-3,48.2,42.8,33.1,44.2,32.5,21.4,86,68,45,30.47,29.80,7,3,12,0.00
2013-11-4,42.6,35.7,31.0,26.1,20.6,16.1,76,55,34,30.68,30.47,4,1,9,0.00
2013-11-5,52.7,42.6,30.8,42.2,35.4,25.6,88,76,62,30.68,30.49,0,0,2,0.00
2013-11-6,59.0,50.9,41.9,49.3,44.9,39.0,95,81,63,30.51,30.08,0,0,2,0.00
2013-11-7,59.4,51.3,38.3,56.5,47.1,32.4,96,86,67,30.08,29.77,7,1,8,0.10
2013-11-8,45.9,41.2,36.6,34.0,28.8,23.4,82,62,44,30.24,29.94,6,2,15,0.00
2013-11-9,48.2,40.5,32.3,32.8,28.5,24.3,84,63,42,30.31,30.00,1,0,6,0.00
2013-11-10,57.3,46.4,36.6,39.1,33.4,28.1,87,62,42,30.05,29.83,8,2,17,0.00
2013-11-11,50.7,45.5,38.9,34.3,30.1,26.7,63,55,48,30.21,29.97,6,1,15,0.00
2013-11-12,48.7,35.7,28.3,35.4,24.5,17.9,85,64,52,30.31,29.93,9,4,12,0.00
2013-11-13,35.9,30.0,26.2,21.1,17.3,11.8,72,60,39,30.40,30.29,8,3,14,0.00
2013-11-14,49.4,39.0,31.6,22.9,18.5,13.8,64,45,27,30.28,30.18,3,0,6,0.00
2013-11-15,56.3,42.1,32.9,29.0,24.2,17.6,72,52,22,30.26,30.17,1,0,3,0.00
2013-11-16,58.4,48.3,36.3,44.6,39.2,27.1,91,71,57,30.34,30.24,1,0,4,0.01
2013-11-17,56.9,53.3,48.1,56.6,52.7,47.5,99,98,97,30.22,29.80,0,0,0,0.05
2013-11-18,61.3,56.4,47.7,60.8,41.2,26.2,99,61,34,29.80,29.61,5,1,12,0.33
2013-11-19,47.5,40.6,33.5,30.5,25.6,22.4,64,55,47,30.36,29.79,11,5,16,0.00
2013-11-20,41.4,34.1,28.0,22.3,17.3,7.1,71,52,24,30.64,30.36,6,2,13,0.00
2013-11-21,48.5,37.6,24.0,40.4,29.9,18.8,84,74,57,30.64,30.41,1,0,2,0.00
2013-11-22,55.3,50.2,44.9,49.3,45.9,40.4,95,85,78,30.41,29.92,4,0,7,0.05
2013-11-23,52.0,38.6,27.2,47.6,25.9,11.6,88,61,41,30.06,29.92,11,5,27,0.00
2013-11-24,26.8,23.0,20.2,11.9,6.8,3.5,58,50,38,30.40,30.04,11,5,21,0.00
2013-11-25,32.9,26.4,19.4,15.7,12.5,8.0,64,56,47,30.50,30.34,4,0,8,0.00
2013-11-26,41.8,32.9,30.0,41.0,24.6,14.9,97,73,52,30.35,29.80,1,0,3,0.72
2013-11-27,56.5,42.0,31.9,55.9,39.1,22.4,99,90,67,29.77,29.38,9,4,17,2.58
2013-11-28,31.7,29.0,26.7,21.3,14.7,9.8,67,55,40,30.49,29.76,9,3,21,0.00
2013-11-29,34.5,29.6,25.6,21.7,19.6,14.7,81,66,55,30.76,30.48,5,1,6,0.00
2013-11-30,32.8,27.4,20.0,24.3,17.7,12.2,74,66,59,30.77,30.41,1,0,4,0.00
2013-12-1,46.2,37.0,28.3,33.6,29.4,24.6,93,74,59,30.41,30.04,1,0,4,0.00
2013-12-2,44.6,37.0,30.3,34.0,31.0,27.9,91,79,64,30.03,29.91,1,0,1,0.00
2013-12-3,50.7,38.0,29.2,37.1,31.9,27.3,96,80,53,30.03,29.90,2,0,3,0.00
2013-12-4,49.1,40.6,31.1,41.0,35.8,29.0,95,83,69,30.15,30.03,0,0,2,0.00
2013-12-5,52.8,48.2,44.5,52.3,46.9,40.7,99,95,83,30.14,29.95,0,0,0,0.08
2013-12-6,57.0,44.9,36.1,56.7,43.1,34.6,99,93,88,30.16,29.88,6,2,10,0.91
2013-12-7,36.2,33.7,28.4,34.7,26.6,17.4,95,76,60,30.53,30.10,8,2,10,0.03
2013-12-8,30.0,27.2,25.4,26.5,19.6,15.6,94,74,61,30.61,30.40,3,0,5,0.00
2013-12-9,35.5,32.5,28.1,34.7,31.4,26.6,97,96,90,30.40,29.99,2,0,4,0.26
2013-12-10,34.8,30.8,22.9,32.2,28.0,18.2,95,89,81,30.13,29.90,1,0,4,0.00
2013-12-11,30.7,25.4,20.8,18.8,17.3,15.7,82,72,58,30.34,30.14,2,0,10,0.01
2013-12-12,25.3,21.6,18.5,17.4,9.7,5.4,76,60,50,30.38,30.18,7,2,12,0.00
2013-12-13,32.4,24.2,12.6,21.1,13.6,5.8,80,64,53,30.35,30.15,4,1,7,0.00
2013-12-14,26.6,22.0,17.2,24.6,18.5,15.0,95,86,75,30.50,29.84,2,1,6,0.00
2013-12-15,36.1,31.2,26.4,33.1,27.7,22.0,96,87,72,29.85,29.57,5,1,6,0.28
2013-12-16,29.4,20.8,15.2,24.2,0.2,-99.9,85,58,47,30.25,29.84,7,-117,10,0.00
2013-12-17,26.1,20.0,14.8,24.6,17.1,10.9,94,89,82,30.25,29.97,4,0,4,0.00
2013-12-18,34.6,25.8,17.1,23.6,19.9,14.7,91,79,62,30.20,29.96,5,1,9,0.05
2013-12-19,43.9,31.1,17.3,29.5,23.5,14.4,92,75,49,30.20,30.04,1,0,5,0.23
2013-12-20,49.1,39.1,30.4,34.9,31.6,27.8,91,76,55,30.13,29.99,0,0,3,0.38
2013-12-21,56.0,46.8,35.8,51.4,42.0,32.8,96,84,70,30.01,29.92,1,0,4,0.00
2013-12-22,66.4,60.7,51.5,62.8,57.6,49.3,98,90,80,29.96,29.80,2,0,6,0.03
2013-12-23,57.5,50.8,37.6,55.8,48.7,30.1,100,93,74,30.16,29.91,9,2,13,0.77
2013-12-24,37.3,32.0,22.9,29.8,21.5,10.8,82,65,55,30.37,30.11,10,4,13,0.00
2013-12-25,26.2,21.5,15.8,13.8,9.6,7.3,71,60,48,30.54,30.37,7,2,11,0.00
2013-12-26,32.8,27.7,20.8,26.8,21.7,13.8,84,78,66,30.45,30.18,2,0,4,0.00
2013-12-27,38.4,31.4,24.4,24.6,21.9,18.8,82,69,52,30.37,30.28,2,0,5,0.00
2013-12-28,50.3,36.7,23.3,29.1,25.4,20.8,92,67,42,30.30,30.10,2,0,7,0.00
2013-12-29,40.9,37.4,32.7,40.1,33.7,27.3,97,87,69,30.09,29.48,5,1,11,1.26
2013-12-30,41.7,32.8,19.8,38.6,25.7,9.9,94,75,58,30.21,29.72,6,2,12,0.00
2013-12-31,29.6,23.2,17.0,23.1,13.0,8.3,79,65,51,30.30,30.08,4,1,7,0.00
2014-1-1,31.0,25.1,17.1,21.3,16.0,8.4,81,68,56,30.42,30.27,2,0,3,0.00
2014-1-2,27.8,22.0,11.9,21.2,17.9,9.3,91,84,71,30.27,29.72,6,2,11,0.00